MPEC 2004-F32 : 2004 FX1

The following Minor Planet Electronic Circular may be linked-to from your own Web pages, but must not otherwise be redistributed electronically.


Read MPEC 2004-F31 Read MPEC 2004-F33


M.P.E.C. 2004-F32                                Issued 2004 Mar. 19, 15:32 UT

     The Minor Planet Electronic Circulars contain information on unusual
         minor planets and routine data on comets.  They are published
   on behalf of Commission 20 of the International Astronomical Union by the
          Minor Planet Center, Smithsonian Astrophysical Observatory,
                          Cambridge, MA 02138, U.S.A.

         Supported in part by the Steven and Michele Kirsch Foundation
             Prepared using the Tamkin Foundation Computer Network

                              MPC@CFA.HARVARD.EDU
          URL http://cfa-www.harvard.edu/iau/mpc.html  ISSN 1523-6714

                                   2004 FX1

Observations:
     K04F01X* C2004 03 17.26937 10 18 49.13 -17 58 41.3          19.6   EF032704
     K04F01X  C2004 03 17.28077 10 18 43.90 -18 00 53.9          19.5   EF032704
     K04F01X  C2004 03 17.29212 10 18 38.70 -18 03 04.6          19.4   EF032704
     K04F01X  C2004 03 17.30368 10 18 33.47 -18 05 16.7          19.8   EF032704
     K04F01X  C2004 03 18.22206 10 13 21.61 -20 41 14.5          19.6   EF032704
     K04F01X  C2004 03 18.22553 10 13 20.24 -20 41 44.5          19.8   EF032704
     K04F01X  C2004 03 18.23195 10 13 18.60 -20 42 38.3          20.6 R EF032651
     K04F01X  C2004 03 18.23301 10 13 18.19 -20 42 48.5          20.6 R EF032651
     K04F01X  C2004 03 18.23314 10 13 17.46 -20 42 53.9          20.4   EF032704
     K04F01X  C2004 03 18.23738 10 13 15.84 -20 43 31.0          20.5   EF032704
     K04F01X  C2004 03 18.24118 10 13 15.07 -20 44 02.5          20.6 R EF032651
     K04F01X  C2004 03 18.24423 10 13 13.33 -20 44 32.9          20.4   EF032704
     K04F01X  C2004 03 18.24898 10 13 11.52 -20 45 14.9          20.6   EF032704
     K04F01X  C2004 03 18.25539 10 13 09.19 -20 46 11.5          20.2   EF032704
     K04F01X  C2004 03 18.26058 10 13 07.29 -20 46 57.3          20.3   EF032704
     K04F01X  C2004 03 18.26647 10 13 05.07 -20 47 49.3          20.0   EF032704
     K04F01X  C2004 03 18.27394 10 13 02.36 -20 48 54.9          20.1   EF032704
     K04F01X  C2004 03 19.22436 10 08 42.99 -22 53 25.4          20.2 R EF032649
     K04F01X  C2004 03 19.22615 10 08 42.48 -22 53 37.8          19.9 R EF032649
     K04F01X tC2004 03 19.23264 10 08 43.21 -22 54 13.9                 EF032291
     K04F01X tC2004 03 19.23724 10 08 41.81 -22 54 47.0                 EF032291
     K04F01X  C2004 03 19.23856 10 08 38.77 -22 55 02.9          19.7 R EF032649
     K04F01X 5C2004 03 19.25324 10 08 37.92 -22 56 39.9          20.0 R EF032673
     K04F01X 5C2004 03 19.25556 10 08 37.13 -22 56 58.6                 EF032673
     K04F01X 5C2004 03 19.26030 10 08 35.81 -22 57 28.5                 EF032673
     K04F01X 5C2004 03 19.26319 10 08 34.88 -22 57 48.3                 EF032673
     K04F01X 5C2004 03 19.26678 10 08 33.85 -22 58 13.4                 EF032673
     K04F01X 5C2004 03 19.27095 10 08 32.52 -22 58 42.2                 EF032673

Observer details:
291 LPL/Spacewatch II.  Observer R. S. McMillan.  1.8-m f/2.7 reflector + CCD.
649 Powell Observatory, Louisburg.  Observer R. Fredrick.  0.75-m Newtonian
    + CCD.
651 Grasslands Observatory, Tucson.  Observer J. E. McGaha.  0.62-m f/5.1
    Newtonian + CCD.
673 Table Mountain Observatory, Wrightwood.  Observers J. Young, A. Grigsby.
    0.6-m reflector + CCD.
704 Lincoln Laboratory ETS, New Mexico.  Observers M. Blythe, F. Shelly,
    M. Bezpalko, R. Huber, L. Manguso, D. Torres, R. Kracke, M. McCleary,
    H. Stange, A. Milner.  Measurers J. Stuart, R. Sayer, J. Evans, J. Kommers.
    1.0-m f/2.15 reflector + CCD.

Orbital elements:
2004 FX1
Epoch 2004 July 14.0 TT = JDT 2453200.5                 MPC
M 153.33607              (2000.0)            P               Q
n   0.81646655     Peri.   97.28394     -0.01117662     -0.99924743
a   1.1337321      Node   353.02563     +0.75346903     +0.01600498
e   0.2682020      Incl.   17.81219     +0.65738840     -0.03533294
P   1.21           H   25.3           G   0.15           U   8
Residuals in seconds of arc
040317 704  0.1+  0.2+    040318 651  1.1-  0.9-    040319 291  0.8+  0.9-
040317 704  0.3+  0.3-    040318 704  0.3+  0.4-    040319 649  0.5-  0.1-
040317 704  0.0   0.3-    040318 704  0.3-  0.2-    040319 673  0.5+  0.6+
040317 704  0.3+  0.1+    040318 704  0.3+  0.0     040319 673  0.7-  2.0-
040318 704  0.6+  0.1-    040318 704  0.6+  0.0     040319 673  0.8+  0.8+
040318 704  0.5-  1.0+    040318 704  0.1-  0.1-    040319 673  0.0   1.0+
040318 651  0.0   0.8+    040318 704  0.4+  0.2-    040319 673  0.8+  0.6+
040318 651  0.2-  0.1+    040319 649  0.8-  0.4-    040319 673  0.3-  0.4+
040318 704  0.4+  0.2-    040319 649  0.4-  0.4-
040318 704  0.2-  0.6+    040319 291  0.8+  0.1+

Ephemeris:
2004 FX1                 a,e,i = 1.13, 0.27, 18                  q = 0.8298
Date    TT    R. A. (2000) Decl.     Delta      r     Elong.  Phase     V
2004 03 16    10 28.66   -12 54.3    0.037    1.028   156.2    22.9    19.3
2004 03 17    10 20.67   -17 01.4    0.043    1.033   151.8    27.1    19.7
2004 03 18    10 14.52   -20 04.5    0.049    1.037   148.3    30.3    20.1
2004 03 19    10 09.69   -22 24.3    0.055    1.042   145.6    32.7    20.5
2004 03 20    10 05.82   -24 13.5    0.062    1.046   143.4    34.6    20.8
2004 03 21    10 02.69   -25 40.8    0.069    1.051   141.5    36.1    21.1
2004 03 22    10 00.14   -26 51.6    0.075    1.055   140.0    37.4    21.3
2004 03 23    09 58.04   -27 49.9    0.082    1.060   138.7    38.4    21.5
2004 03 24    09 56.32   -28 38.6    0.089    1.064   137.5    39.3    21.7
2004 03 25    09 54.90   -29 19.5    0.096    1.069   136.5    40.0    21.9
2004 03 26    09 53.75   -29 54.3    0.103    1.073   135.5    40.6    22.1

Kyle E. Smalley              (C) Copyright 2004 MPC           M.P.E.C. 2004-F32

Read MPEC 2004-F31 Read MPEC 2004-F33


Our Web policy. Index to the CBAT/MPC/ICQ pages.

MPC